GFSNE_250_rhum_120.txt.gz
RH
19 16 12 9 7 7 7 9 9 10 10 11 8 7 6 6 6 5 5 6 6 6 6 7 7 8 9 10 12 13 16 20 28 54 90 100 100 100
20 20 20 21 23 22 19 15 11 9 10 13 10 9 7 6 6 6 5 5 6 6 6 6 6 7 8 8 8 10 14 18 22 23 25 40 64 95
17 18 19 21 21 20 18 16 15 16 18 26 21 14 13 9 8 7 7 5 5 5 6 6 7 8 8 7 8 9 11 14 18 19 19 21 23 40
17 15 14 13 14 14 14 14 15 16 16 18 14 12 13 14 12 9 9 9 8 6 6 6 7 8 8 9 10 11 12 14 15 16 16 20 24 28
34 31 26 20 16 12 11 10 10 10 9 11 16 17 17 13 15 16 9 10 9 9 9 9 9 9 9 10 10 13 15 13 14 16 18 21 22 25
36 33 30 26 22 16 13 11 9 8 7 7 8 9 11 14 16 17 15 11 10 12 12 12 13 11 11 14 15 17 20 18 23 18 24 22 27 27
41 36 29 23 17 15 13 10 9 8 7 7 7 7 8 9 10 13 18 18 17 13 14 15 15 15 14 17 23 28 37 34 41 35 33 34 29 29
36 34 26 18 14 13 12 10 8 7 6 6 6 6 6 7 9 10 12 16 21 19 22 19 18 18 24 26 35 39 31 48 45 34 35 42 39 33
26 27 20 14 13 11 9 8 7 7 6 6 6 5 5 5 6 8 10 12 14 20 21 29 20 27 28 32 43 55 56 52 39 35 35 34 46 44
28 30 19 12 10 8 7 6 6 5 6 6 5 5 5 5 5 6 8 10 12 13 14 25 24 35 34 37 33 60 68 68 68 49 51 67 53 44
29 22 13 10 8 7 7 7 6 5 4 4 4 5 5 5 4 5 6 7 10 11 10 14 27 29 37 36 48 60 64 88 74 73 65 67 81 71
30 19 11 9 8 7 6 5 4 3 4 3 2 3 3 3 4 4 5 5 7 9 9 9 17 19 25 30 44 61 61 74 79 91 94 78 82 85
32 17 10 8 8 6 5 5 7 6 5 4 4 3 3 3 3 3 3 4 5 7 9 8 11 15 18 27 40 56 69 77 84 92 100 100 93 83
32 14 10 10 8 7 8 7 5 4 4 3 3 2 2 2 2 3 3 3 3 5 7 7 8 10 14 22 29 42 64 82 97 99 100 100 100 100
21 12 10 9 8 9 6 4 4 4 5 4 4 3 3 2 2 2 2 3 4 3 4 6 7 9 11 17 25 27 44 81 89 100 100 100 100 100
15 11 9 7 8 6 5 5 5 5 5 4 4 4 4 3 3 2 3 3 3 4 3 3 4 7 9 14 23 26 31 50 86 94 100 100 100 83
12 11 9 10 10 6 6 6 5 5 5 4 4 4 4 3 3 3 3 3 3 3 3 3 3 4 7 9 15 27 23 33 51 92 99 100 100 100
11 11 10 13 8 8 7 7 6 5 4 4 3 3 3 2 2 2 2 2 3 3 3 2 3 3 4 7 11 17 22 36 36 51 84 100 100 100
12 10 13 11 8 8 7 7 6 5 4 3 3 2 2 2 2 2 2 2 2 2 3 3 2 3 4 5 7 12 17 25 37 53 62 85 100 100
12 12 15 10 9 8 8 7 6 4 4 3 2 2 2 2 2 2 2 2 2 2 2 2 3 3 4 4 5 8 11 18 24 38 78 80 87 100
13 14 13 10 8 8 8 6 5 4 3 3 2 2 2 2 2 2 2 2 2 2 2 2 2 3 4 4 4 5 7 11 20 26 39 85 99 96
13 17 12 10 9 9 8 6 4 3 3 3 3 3 3 3 2 2 2 2 2 2 2 2 2 2 3 4 4 4 6 7 11 21 25 46 95 100
15 18 13 10 10 10 8 6 4 3 4 3 3 3 3 3 2 2 2 2 2 2 2 2 2 2 2 3 4 4 4 6 7 11 19 24 56 100

GFSNE_250_rhum_123.txt.gz
RH
21 22 22 20 18 18 17 16 17 16 15 16 14 10 8 7 7 7 7 6 6 6 6 6 7 9 9 10 9 8 8 8 9 10 12 16 31 47
38 32 25 23 22 22 22 23 24 24 25 27 20 19 13 12 10 9 8 8 6 6 5 5 6 6 6 7 7 6 6 7 8 8 10 14 17 23
48 44 40 38 34 26 18 15 15 16 18 22 25 23 18 14 13 12 10 9 8 7 7 6 6 6 5 6 6 6 6 6 6 6 8 13 16 24
40 39 38 37 38 39 40 36 31 21 15 15 16 16 16 17 16 13 12 12 11 9 8 7 7 8 7 6 6 6 6 6 6 6 7 9 16 22
46 39 38 35 34 34 37 41 40 31 19 14 14 10 9 10 11 12 12 11 11 12 13 12 11 9 9 8 7 6 7 7 7 6 7 9 27 31
45 41 37 35 33 35 36 39 32 25 18 15 14 12 10 8 8 8 9 10 10 10 10 14 15 14 10 8 10 9 8 8 8 8 9 10 13 14
48 46 39 33 29 29 30 26 20 16 12 12 11 10 9 9 8 7 8 8 8 9 10 11 13 18 17 13 9 9 9 9 10 11 12 12 14 16
50 45 42 40 32 29 29 23 17 14 12 10 9 8 7 6 6 6 5 6 6 7 8 11 11 13 18 23 17 11 11 13 14 19 22 14 13 18
47 46 42 33 31 27 25 19 13 10 9 8 7 6 5 5 5 5 5 5 5 5 5 8 8 12 12 20 25 21 17 14 18 23 31 28 26 26
40 36 37 31 28 25 20 14 10 8 7 7 7 6 6 5 4 4 5 4 4 5 5 6 7 9 11 12 22 28 22 21 26 23 38 40 39 45
40 35 34 32 28 23 16 12 9 8 7 6 5 4 4 4 4 3 3 3 4 4 4 5 6 7 8 10 14 28 29 26 29 32 51 53 57 60
37 30 31 30 25 17 12 11 9 8 6 6 5 5 4 4 3 3 4 4 3 3 3 4 5 6 7 8 10 17 25 29 33 33 47 57 80 69
36 30 30 25 20 14 11 9 8 7 7 7 6 4 4 3 2 2 2 3 4 3 2 2 4 5 7 8 9 12 20 26 35 40 50 61 62 61
37 34 31 27 19 13 9 8 8 8 8 6 6 6 5 4 3 2 2 3 3 3 2 2 2 4 6 8 8 10 16 23 34 45 41 57 62 62
34 32 30 25 17 13 10 9 9 7 7 7 6 5 4 4 3 3 3 3 3 3 2 2 3 3 5 7 8 8 13 17 26 46 58 63 74 72
33 34 31 23 15 11 9 9 8 7 8 7 6 6 5 4 3 3 3 3 3 3 3 2 2 3 3 5 7 7 9 15 20 33 53 74 92 86
32 34 27 19 12 10 9 9 7 8 8 7 6 5 4 4 3 3 3 3 3 3 3 3 2 2 4 3 6 6 6 12 15 29 53 76 91 99
37 34 24 17 11 10 12 10 8 9 9 8 6 4 4 3 3 2 2 2 2 2 2 3 3 3 3 4 4 5 5 9 13 17 38 62 91 100
39 28 21 13 11 12 12 10 9 10 9 6 5 4 3 2 2 2 2 2 2 2 2 2 2 3 3 3 4 4 4 6 10 15 28 52 91 98
37 26 16 11 11 13 11 10 10 10 8 6 4 3 2 2 2 2 2 2 2 2 2 2 2 2 3 3 3 4 4 4 7 14 24 42 71 99
28 18 12 12 13 13 10 9 10 9 7 5 3 3 3 3 3 3 3 2 2 2 2 2 2 2 2 3 3 3 4 4 5 9 19 35 54 89
24 14 12 13 15 12 10 10 10 8 7 4 3 3 4 3 3 3 3 3 2 2 2 2 2 2 2 2 3 3 4 4 4 6 12 32 44 81
18 12 12 15 16 12 11 11 10 8 7 4 4 4 4 4 4 3 3 3 3 2 2 2 2 2 2 2 2 3 4 4 5 5 8 19 40 57

GFSNE_250_rhum_126.txt.gz
RH
39 38 37 41 43 38 30 26 28 30 30 25 25 24 24 21 17 14 13 13 12 11 9 9 9 9 8 8 11 13 15 16 15 15 15 13 14 17
46 40 37 35 30 30 35 34 34 35 34 35 33 24 18 18 20 22 20 17 14 11 11 10 10 9 9 8 8 8 8 10 12 11 11 11 11 12
55 51 46 39 34 31 29 30 31 33 38 42 42 39 34 24 16 13 12 12 14 15 15 13 10 9 9 9 9 8 8 8 8 8 8 8 8 8
49 49 50 49 46 41 38 31 31 34 34 41 39 36 35 32 21 18 15 12 10 9 9 11 14 14 13 10 10 10 8 8 8 8 8 8 7 7
52 42 46 46 46 45 42 38 34 32 33 35 34 29 25 20 18 14 11 10 10 9 8 8 8 9 11 13 14 10 10 10 9 8 7 7 6 6
55 45 38 37 36 36 35 33 32 34 33 32 31 26 20 16 13 13 12 11 9 8 8 8 7 8 8 8 10 14 14 12 10 9 9 8 7 6
54 45 43 45 41 34 36 34 34 32 31 29 21 18 16 14 13 12 11 10 8 8 7 6 7 7 7 8 7 8 13 18 15 12 10 10 7 6
59 52 46 44 37 31 33 34 34 30 28 22 17 15 14 12 10 9 8 8 8 7 6 6 6 6 6 6 7 7 8 14 17 15 14 11 9 8
45 49 47 38 34 32 30 35 31 26 24 19 16 13 10 9 8 7 6 6 6 6 5 5 4 4 5 5 6 7 8 10 11 17 20 13 11 9
41 36 44 40 31 30 30 36 29 25 19 16 14 11 9 8 7 6 6 5 4 4 4 4 4 4 4 4 5 6 7 9 10 12 23 19 12 13
51 34 33 34 31 25 29 36 28 22 18 15 11 9 7 6 5 5 4 4 5 4 3 2 3 3 3 4 4 5 6 8 9 10 17 22 17 15
52 42 30 34 30 24 30 33 28 22 18 14 10 7 6 5 5 4 4 4 4 4 3 2 2 2 3 3 4 4 5 7 8 10 14 21 27 23
45 42 27 30 28 27 36 29 25 21 16 11 8 7 6 6 4 4 4 4 4 4 4 3 2 2 3 4 2 3 5 6 7 9 13 21 28 26
43 40 29 28 25 30 31 26 20 15 10 8 8 8 8 7 6 5 5 4 4 4 4 3 3 2 2 2 3 2 4 5 6 8 11 17 27 38
42 29 27 26 29 37 31 24 17 12 9 9 8 8 7 6 6 6 5 4 4 4 4 4 3 3 2 2 3 2 2 5 6 6 10 15 24 37
30 23 23 30 39 36 32 22 14 10 10 10 10 8 7 7 6 5 4 4 3 3 3 3 4 3 2 2 2 2 2 4 5 6 8 13 24 35
21 20 27 33 31 33 24 16 11 10 10 10 9 8 8 6 5 4 3 3 3 2 2 3 3 3 2 2 3 2 2 3 5 6 7 11 21 31
18 26 37 33 34 30 19 13 10 10 10 9 8 8 7 5 5 3 3 2 2 2 2 2 2 3 2 2 3 2 2 3 4 5 7 9 16 27
21 34 36 30 35 23 16 12 11 12 11 10 9 8 5 5 4 3 3 3 2 2 2 2 2 2 2 2 3 2 2 3 3 5 6 8 13 23
32 33 29 38 28 18 12 11 12 13 10 10 9 6 5 4 3 4 4 3 3 3 2 2 2 2 2 2 3 3 3 3 4 4 6 8 12 22
26 27 38 35 20 14 12 12 15 12 10 10 7 6 6 4 4 4 4 3 3 3 3 2 2 2 2 2 2 3 3 3 4 4 6 8 10 18
25 32 37 25 16 13 13 16 14 11 11 10 6 6 5 4 4 4 4 4 3 3 3 3 2 2 2 2 2 2 3 4 4 5 5 8 9 15
32 39 29 18 14 13 15 16 13 11 11 9 7 7 5 5 4 4 4 4 4 3 3 3 3 2 2 2 2 2 3 4 4 5 6 7 8 13

GFSNE_250_rhum_129.txt.gz
RH
64 62 52 48 44 38 35 31 29 28 26 25 24 24 26 26 26 27 25 23 21 19 16 15 14 14 13 11 11 11 13 16 18 19 19 22 22 20
58 57 51 46 47 46 40 44 37 33 44 36 29 28 26 25 24 25 28 30 28 24 22 20 17 13 12 11 10 11 11 11 12 13 14 16 17 17
84 61 54 55 49 44 43 39 39 40 40 36 42 41 34 34 32 28 23 20 20 20 19 16 15 15 13 11 11 10 10 10 11 11 11 12 13 14
92 80 66 52 47 46 41 38 38 33 37 36 32 38 39 36 30 30 32 28 24 18 14 13 12 12 11 12 12 11 11 11 11 10 10 10 10 10
87 77 66 58 55 51 45 45 37 35 34 34 33 32 36 35 29 24 23 23 20 17 15 13 11 10 9 8 9 9 9 10 12 12 10 9 9 9
85 86 75 64 62 59 51 42 44 32 29 32 31 29 31 34 31 29 28 21 18 15 13 13 12 11 10 8 7 7 7 8 8 11 13 13 12 10
97 97 82 62 50 44 45 41 40 36 26 28 34 27 26 28 24 23 20 18 15 14 12 12 12 10 9 8 8 7 6 6 6 7 9 13 14 12
96 88 59 64 55 46 42 42 37 33 26 27 31 24 26 26 23 20 17 16 16 15 13 12 9 8 7 6 5 5 6 5 6 6 7 9 11 13
91 89 70 61 48 37 35 34 34 30 28 26 25 23 26 22 20 17 15 15 14 12 10 8 7 6 6 5 5 4 4 5 5 5 6 7 9 10
100 89 76 58 40 38 38 34 34 29 25 24 23 26 24 20 16 14 14 12 10 8 7 6 6 5 4 4 4 4 4 3 4 5 5 6 7 8
100 91 70 40 34 36 36 37 31 22 20 20 23 22 18 16 15 14 11 9 7 7 6 4 4 4 4 3 3 3 3 3 3 4 4 6 7 8
88 61 45 39 35 34 36 31 24 19 18 23 22 17 16 15 13 10 7 7 6 6 5 4 4 3 4 4 3 2 2 2 2 4 4 5 6 8
58 46 39 35 34 31 30 25 18 18 26 27 21 21 19 14 10 7 6 5 4 4 4 4 4 4 3 4 3 2 2 2 2 3 4 4 5 7
33 33 32 28 29 30 28 19 16 26 31 24 24 21 15 10 8 7 6 5 4 4 5 4 4 4 4 4 4 2 1 2 2 2 2 4 4 6
29 30 28 26 29 28 24 16 21 27 22 23 21 14 10 8 8 7 6 5 5 4 4 4 4 4 3 3 3 2 2 2 2 2 2 3 4 6
27 26 23 26 29 28 16 16 26 24 28 25 15 11 8 9 8 6 6 6 5 4 3 3 3 3 3 2 2 2 2 2 2 2 3 3 4 6
21 18 22 26 26 19 16 24 22 27 26 17 11 9 11 10 8 7 6 4 4 4 3 2 2 2 2 2 2 2 2 2 2 2 2 3 4 6
15 17 21 23 18 15 22 21 26 28 19 12 10 12 12 9 8 6 5 4 4 3 2 2 2 2 2 2 2 2 2 3 3 3 2 3 3 5
15 16 17 15 14 19 22 26 28 19 13 10 12 14 10 8 7 5 5 4 3 3 3 3 2 2 2 2 2 2 2 3 3 3 3 3 3 5
11 14 13 14 18 23 26 30 21 15 11 12 16 12 9 9 7 6 4 3 3 3 3 3 3 3 2 2 2 2 2 3 3 3 3 3 4 5
12 12 13 17 23 28 30 22 16 12 12 18 14 11 10 8 7 6 4 4 4 4 4 3 3 3 3 2 2 2 2 2 3 3 3 3 4 4
11 12 16 22 31 31 24 18 12 12 19 16 12 11 10 8 7 5 4 5 4 4 4 4 3 3 3 3 2 2 2 2 3 4 3 3 4 5
12 15 20 32 32 24 18 13 12 18 19 14 12 12 9 9 7 6 5 5 4 4 4 4 3 3 3 3 3 2 2 2 3 4 4 3 4 5

GFSNE_250_rhum_135.txt.gz
RH
95 92 94 95 81 87 90 85 80 73 78 75 63 57 49 44 35 33 32 26 27 26 28 26 23 21 20 22 24 38 49 55 46 42 40 32 32 32
73 76 75 82 80 79 86 82 82 84 85 83 71 66 56 44 38 32 31 26 27 27 26 26 29 28 26 24 22 21 21 22 23 24 23 23 23 26
62 58 56 58 61 57 61 79 79 84 88 83 75 70 69 53 41 36 32 28 23 26 27 28 26 27 29 29 27 27 26 22 20 18 18 17 18 19
62 66 75 80 80 78 85 85 100 85 86 98 87 71 58 51 38 32 31 29 25 23 22 23 24 24 26 27 31 30 28 26 24 21 18 16 16 15
67 71 68 72 83 80 74 71 76 91 85 89 86 62 52 38 30 28 28 25 23 24 22 20 20 19 20 23 25 26 28 27 25 20 17 15 14 14
62 61 58 56 55 59 55 60 66 62 61 60 60 65 52 36 29 26 23 22 23 22 24 24 20 20 19 18 20 22 23 22 21 21 19 16 13 11
46 48 47 50 52 49 46 42 41 49 51 45 48 44 38 27 22 24 23 21 20 21 22 22 22 22 20 18 16 16 16 17 18 18 16 15 13 13
50 52 53 53 48 44 38 37 36 38 38 33 35 34 33 27 22 22 20 20 21 20 23 21 20 18 15 14 14 14 13 12 11 12 13 14 13 13
42 41 44 42 42 39 35 28 28 27 24 28 33 25 21 18 21 21 20 21 19 18 20 24 16 15 13 13 12 11 10 11 12 12 12 12 13 13
32 30 27 27 28 28 23 21 21 20 19 23 24 22 19 18 20 20 18 19 18 21 22 23 16 14 12 13 12 11 10 10 9 9 10 10 10 10
22 22 20 20 20 16 18 18 16 17 21 22 19 16 17 17 18 18 16 19 20 19 14 15 13 13 14 15 13 10 8 7 6 6 6 7 8 8
18 17 17 18 15 12 12 13 15 17 18 17 14 14 16 16 18 16 16 20 19 18 12 12 12 12 15 17 14 10 8 6 4 4 4 4 4 5
16 14 14 12 10 10 10 11 14 14 12 13 14 14 15 18 17 16 19 17 16 12 10 13 14 13 10 9 8 6 5 4 3 2 2 2 2 2
12 11 11 10 10 9 9 10 10 11 12 14 14 16 18 16 14 14 13 12 10 10 12 12 10 8 6 6 5 5 4 3 3 3 2 2 2 2
12 12 10 9 9 10 10 10 11 12 13 14 17 15 14 13 11 12 10 11 13 12 11 8 7 7 6 6 6 5 4 3 2 2 2 2 2 2
12 11 9 9 9 10 10 11 11 13 14 14 13 13 11 11 11 11 13 16 15 11 8 8 8 7 6 5 4 4 3 3 2 2 2 2 2 2
12 10 9 9 9 10 10 10 10 10 12 13 11 10 11 10 12 14 18 16 11 10 9 7 7 6 5 4 3 4 4 2 2 2 2 2 2 2
10 10 9 9 9 10 9 9 11 12 10 9 10 10 11 13 17 17 14 11 11 11 8 8 6 6 5 3 2 4 4 3 2 2 2 2 1 2
10 10 9 9 10 9 10 12 9 8 9 10 10 11 14 19 17 14 11 13 13 10 9 7 7 6 6 5 3 3 4 3 3 3 3 2 1 2
10 9 9 9 10 9 11 10 9 9 10 10 12 15 20 17 13 11 15 14 12 10 8 7 7 6 6 4 4 3 3 4 3 3 2 2 2 2
9 9 9 9 9 10 10 10 10 9 10 12 16 19 18 13 11 16 16 12 12 9 9 8 7 6 6 5 4 3 3 3 3 3 2 2 2 2
9 9 9 9 9 9 10 10 9 10 12 15 19 17 13 12 16 16 13 12 9 9 10 7 6 6 5 4 4 4 3 3 3 3 2 2 2 2
9 10 10 10 10 10 10 10 10 12 16 19 17 13 12 18 17 14 13 10 10 11 9 7 7 6 5 4 4 4 3 3 3 3 2 2 2 2

GFSNE_250_rhum_138.txt.gz
RH
81 82 78 71 67 64 65 67 61 70 78 69 68 67 71 76 77 65 53 46 34 29 29 26 23 21 25 24 24 19 25 39 50 63 75 78 100 100
82 72 67 67 64 58 59 65 66 66 66 62 62 59 52 60 65 66 59 54 43 36 27 26 28 24 18 18 22 26 24 62 57 59 90 100 100 100
49 50 50 52 53 56 56 51 50 50 47 48 49 51 55 50 45 48 50 51 43 35 27 24 27 25 21 18 18 19 24 25 24 24 24 38 71 88
50 55 56 56 57 61 58 54 47 42 41 41 41 41 46 48 53 52 50 44 40 36 26 25 22 27 22 18 17 19 20 22 24 26 22 30 81 69
61 69 66 66 62 56 53 52 48 43 41 46 45 39 35 36 36 35 37 39 34 29 26 23 21 20 21 18 17 17 18 18 19 21 22 28 27 30
76 79 70 68 56 54 52 49 45 40 36 35 34 32 35 32 29 25 26 28 27 29 26 22 21 17 17 16 16 17 18 20 20 20 21 21 20 21
69 61 59 55 48 43 41 35 32 28 27 26 27 27 28 27 23 26 24 20 19 20 22 24 24 19 16 16 15 17 20 21 21 19 20 20 19 20
65 56 49 44 38 30 27 24 23 19 17 19 19 19 19 16 17 20 17 17 20 19 20 19 18 16 17 16 15 17 18 18 20 20 21 22 21 18
48 44 42 34 28 23 20 20 16 16 16 16 16 15 14 13 13 14 15 16 18 19 22 16 16 16 16 16 17 17 17 18 18 17 16 16 16 16
34 34 30 23 19 16 15 15 15 13 12 11 11 11 11 10 11 12 14 15 16 15 14 15 14 16 15 14 14 15 16 17 17 16 15 14 12 11
28 22 19 17 15 14 15 13 12 11 10 10 10 10 10 10 10 11 11 12 11 11 13 17 16 18 15 13 13 13 13 12 12 11 11 11 11 11
21 16 15 15 15 13 11 11 12 10 10 10 9 9 9 9 9 10 11 12 12 13 14 20 16 14 16 16 13 12 10 9 9 10 11 10 9 9
16 14 14 14 14 12 11 12 12 12 10 9 8 8 9 10 10 11 12 14 17 16 13 14 12 11 13 16 14 11 10 9 9 9 8 7 6 5
15 14 15 13 12 13 13 13 12 10 9 9 8 9 9 9 11 13 15 16 14 12 11 11 12 11 12 14 16 18 12 10 7 6 6 4 3 2
14 15 13 13 15 14 14 13 10 9 9 8 9 9 9 9 10 11 12 12 11 9 10 10 12 16 18 16 12 9 8 8 7 6 5 4 3 3
15 14 12 14 15 15 13 10 9 10 9 9 9 9 10 12 11 10 9 9 10 10 12 14 15 13 10 9 9 9 7 8 6 5 4 4 3 2
14 12 14 15 16 14 10 10 9 9 9 9 10 11 11 9 8 9 9 10 12 13 13 12 10 9 10 12 10 9 6 6 6 5 4 4 2 2
12 12 15 14 16 12 9 9 9 10 10 10 10 12 11 9 9 10 11 14 16 15 13 9 9 10 11 10 7 6 6 5 5 4 4 3 2 2
11 14 15 14 15 11 10 9 10 10 10 10 11 11 10 10 10 12 15 16 15 12 9 11 11 11 11 7 7 5 5 4 4 4 3 3 3 2
11 15 15 15 14 10 10 9 10 10 10 10 10 10 10 10 13 17 17 15 11 10 13 11 10 10 8 8 9 6 4 4 4 4 3 3 2 3
12 14 14 15 14 11 10 10 10 10 10 10 10 10 10 14 18 18 14 11 12 16 14 11 9 9 9 9 7 7 6 4 3 3 4 3 2 2
12 14 15 15 12 10 10 10 11 10 10 10 10 10 15 20 18 13 11 14 15 14 13 11 10 10 9 8 8 7 5 4 4 3 3 3 2 3
13 14 16 14 11 10 11 11 10 10 10 10 11 14 19 17 13 12 16 16 14 12 11 11 10 9 8 8 7 6 5 4 4 3 3 3 3 3

GFSNE_250_rhum_141.txt.gz
RH
70 63 62 60 55 50 48 47 46 48 53 49 48 43 40 41 41 45 46 40 38 38 41 40 39 43 37 32 30 34 27 19 18 19 21 23 51 87
59 52 52 50 48 54 55 54 56 68 71 61 54 54 48 38 37 38 40 37 34 32 31 37 40 35 38 38 32 25 34 31 19 18 19 19 20 24
50 54 48 46 54 57 59 58 60 57 54 54 47 43 41 40 41 40 37 35 39 38 35 33 33 35 34 32 31 30 27 26 25 19 18 18 19 19
49 53 57 60 63 66 71 71 64 60 57 55 47 40 38 36 36 37 35 36 35 34 31 33 32 34 29 30 32 30 27 21 23 22 18 16 18 19
56 67 72 71 69 56 60 58 51 42 40 36 35 30 29 24 24 25 25 25 28 26 24 24 23 27 31 28 25 25 27 28 24 23 21 17 14 15
64 55 57 61 54 54 47 41 31 28 26 25 26 25 25 21 17 16 16 16 17 16 17 18 18 19 21 22 22 19 20 22 23 22 21 18 14 14
71 65 66 82 59 48 41 31 28 21 20 19 23 20 18 16 14 14 14 13 14 14 15 16 17 14 14 15 16 17 18 18 19 20 20 17 16 15
75 70 67 60 55 38 32 24 21 19 18 17 16 15 15 13 12 11 11 12 12 10 12 12 12 11 12 13 14 14 16 17 19 18 16 15 14 14
78 82 61 41 40 32 22 19 18 18 16 14 14 14 12 10 11 12 11 11 10 10 10 10 9 10 11 12 14 14 14 13 12 14 15 15 15 16
66 55 47 41 32 22 18 16 15 15 14 15 14 12 11 10 10 11 9 9 9 8 9 10 9 10 12 13 12 11 12 12 12 13 14 15 17 18
64 53 41 36 23 17 16 15 15 16 15 14 12 12 12 12 12 10 8 8 8 8 8 10 9 10 10 10 10 11 12 12 14 14 14 14 13 13
53 49 31 23 19 15 14 14 17 16 16 12 13 13 12 12 9 9 9 8 9 9 9 10 10 11 12 11 11 12 14 14 14 14 13 13 12 12
30 25 22 19 16 14 14 15 16 16 14 13 14 12 10 9 9 9 9 9 9 8 8 11 11 14 17 14 11 11 11 10 10 9 9 9 9 10
23 22 20 17 15 14 14 15 16 14 13 14 14 12 9 8 9 9 9 9 9 9 10 11 11 11 12 12 10 8 8 8 9 9 9 10 12 11
21 21 19 15 14 13 13 14 14 13 14 15 15 10 8 8 9 9 9 10 11 9 8 8 9 9 10 11 11 12 11 11 12 11 10 9 7 6
19 20 16 13 13 12 13 13 13 13 15 15 14 9 9 9 9 10 9 11 11 8 8 9 10 11 13 16 20 19 13 13 10 8 8 8 7 6
18 17 14 13 12 12 12 12 12 15 15 15 12 9 9 9 9 9 9 10 10 9 8 10 13 16 20 20 17 13 11 10 10 10 10 9 7 5
15 14 13 11 11 11 11 12 14 15 15 16 12 9 9 10 9 9 9 9 9 9 10 12 15 17 16 14 10 13 13 11 9 9 8 7 6 5
13 13 12 10 10 10 11 12 14 14 15 16 10 9 10 9 9 9 9 10 10 13 15 14 12 11 10 14 15 13 12 10 9 9 7 6 6 5
12 12 10 9 9 10 11 12 14 15 16 14 10 10 10 10 9 10 10 11 16 17 16 11 9 10 14 14 14 10 5 8 8 8 6 5 5 4
11 10 9 9 9 10 11 13 14 15 15 11 10 11 11 10 10 10 12 16 17 14 11 9 11 12 12 11 11 11 9 5 7 7 6 5 4 4
11 10 8 9 9 10 11 13 14 16 12 10 11 12 12 10 10 13 17 16 13 11 11 15 13 11 9 9 10 10 8 7 6 5 4 4 4 4
9 8 8 8 9 10 12 14 15 14 10 10 12 12 11 11 15 17 16 12 10 13 16 14 11 10 9 9 10 9 7 7 6 6 4 3 4 4